Rawlins, WY

5:15 PM MST on January 19, 2017 (GMT -0700)
Rawlins Municipal

Weather History for KRWL - March, 2014

Change the Weather History Date:

Sunday, March 16, 2014

  Actual Average Record
Temperature  
Mean Temperature 38 °F 32 °F  
Max Temperature 51 °F 44 °F 64 °F (2012)
Min Temperature 25 °F 21 °F -9 °F (2002)
Degree Days  
Heating Degree Days 27 33  
Month to date heating degree days 483 558  
Since 1 July heating degree days 6247 6515  
Cooling Degree Days 0 0  
Month to date cooling degree days 0 0  
Year to date cooling degree days 0 0  
Moisture  
Dew Point 15 °F    
Average Humidity 41    
Maximum Humidity 60    
Minimum Humidity 22    
Precipitation  
Precipitation 0.00 in 0.02 in 0.26 in (1966)
Month to date precipitation 0.28 0.30  
Year to date precipitation 0.74 1.08  
Sea Level Pressure  
Sea Level Pressure 30.21 in    
Wind  
Wind Speed 19 mph (WSW)    
Max Wind Speed 38 mph    
Max Gust Speed 47 mph    
Visibility 10 miles    
Events      
T = Trace of Precipitation, MM = Missing Value Source: NWS Daily Summary

Daily Weather History Graph

Daily Weather History Graph

Search for Another Location

Airport or City:

Trip Planner

Search our weather history database for the weather conditions in past years. The results will help you decide how hot, cold, wet, or windy it might be!

Date:

Astronomy

Mar. 16, 2014 Rise Set
Actual Time 7:18 AM MDT 7:16 PM MDT
Civil Twilight 6:51 AM MDT 7:44 PM MDT
Nautical Twilight 6:18 AM MDT 8:16 PM MDT
Astronomical Twilight 5:45 AM MDT 8:49 PM MDT
Moon 7:37 PM MDT (3/16) 7:03 AM MDT (3/16)
Length of Visible Light 12h 53m
Length of Day
11h 57m
Full, 100% of the Moon is Illuminated
Mar 16
Full
Mar 23
Last Quarter
Mar 30
New
Apr 7
First Quarter
Apr 15
Full

Hourly Weather History & Observations

Time (MDT) Temp. Windchill Dew Point Humidity Pressure Visibility Wind Dir Wind Speed Gust Speed Precip Events Conditions
12:53 AM 28.0 °F 17.0 °F 14.0 °F 56% 30.39 in 10.0 mi West 13.8 mph - N/A   Clear
1:53 AM 26.1 °F 16.8 °F 14.0 °F 60% 30.36 in 10.0 mi WSW 9.2 mph - N/A   Clear
2:53 AM 26.1 °F 15.6 °F 12.9 °F 58% 30.35 in 10.0 mi WSW 11.5 mph - N/A   Clear
3:53 AM 25.0 °F 13.6 °F 12.9 °F 60% 30.35 in 10.0 mi WSW 12.7 mph - N/A   Clear
4:53 AM 27.0 °F 17.3 °F 12.9 °F 56% 30.31 in 10.0 mi WSW 10.4 mph 19.6 mph N/A   Clear
5:53 AM 28.0 °F 14.9 °F 12.9 °F 53% 30.32 in 10.0 mi WSW 19.6 mph 29.9 mph N/A   Clear
6:53 AM 27.0 °F 19.5 °F 12.9 °F 56% 30.33 in 10.0 mi WSW 6.9 mph - N/A   Clear
7:53 AM 28.9 °F 16.5 °F 12.9 °F 51% 30.35 in 10.0 mi WSW 18.4 mph 26.5 mph N/A   Clear
8:53 AM 33.1 °F 21.5 °F 12.0 °F 42% 30.35 in 10.0 mi WSW 19.6 mph 25.3 mph N/A   Clear
9:53 AM 37.0 °F 27.0 °F 12.0 °F 36% 30.34 in 10.0 mi WSW 18.4 mph 29.9 mph N/A   Clear
10:53 AM 41.0 °F 31.4 °F 12.9 °F 32% 30.31 in 10.0 mi WSW 21.9 mph 32.2 mph N/A   Clear
11:53 AM 45.0 °F 36.6 °F 14.0 °F 29% 30.21 in 10.0 mi West 21.9 mph 33.4 mph N/A   Clear
12:53 PM 48.9 °F - 12.0 °F 23% 30.17 in 10.0 mi West 31.1 mph 41.4 mph N/A   Clear
1:53 PM 50.0 °F - 14.0 °F 24% 30.16 in 10.0 mi West 27.6 mph 39.1 mph N/A   Clear
2:53 PM 46.9 °F - 15.1 °F 28% 30.14 in 10.0 mi West 31.1 mph 38.0 mph N/A   Clear
3:53 PM 48.9 °F - 16.0 °F 27% 30.13 in 10.0 mi West 26.5 mph 33.4 mph N/A   Clear
4:53 PM 48.0 °F - 15.1 °F 27% 30.12 in 10.0 mi West 20.7 mph 29.9 mph N/A   Clear
5:53 PM 46.9 °F - 17.1 °F 30% 30.08 in 10.0 mi West 17.3 mph 27.6 mph N/A   Clear
6:53 PM 46.0 °F 38.8 °F 17.1 °F 31% 30.09 in 10.0 mi West 18.4 mph 29.9 mph N/A   Clear
7:53 PM 44.1 °F 36.8 °F 18.0 °F 35% 30.08 in 10.0 mi WSW 16.1 mph 20.7 mph N/A   Clear
8:53 PM 43.0 °F 35.1 °F 19.0 °F 38% 30.05 in 10.0 mi WSW 17.3 mph 27.6 mph N/A   Clear
9:53 PM 41.0 °F 32.8 °F 19.0 °F 41% 30.04 in 10.0 mi WSW 16.1 mph 24.2 mph N/A   Clear
10:53 PM 41.0 °F 32.2 °F 17.1 °F 38% 29.99 in 10.0 mi WSW 18.4 mph 32.2 mph N/A   Clear
11:53 PM 41.0 °F 32.5 °F 17.1 °F 38% 29.93 in 10.0 mi SW 17.3 mph 27.6 mph N/A   Clear